Date,TemperatureHighF,TemperatureAvgF,TemperatureLowF,DewpointHighF,DewpointAvgF,DewpointLowF,HumidityHigh,HumidityAvg,HumidityLow,PressureMaxIn,PressureMinIn,WindSpeedMaxMPH,WindSpeedAvgMPH,GustSpeedMaxMPH,PrecipitationSumIn
2013-11-1,69.6,63.7,58.0,64.2,59.3,55.0,100,87,70,29.75,29.43,22,3,22,0.00
2013-11-2,68.6,55.9,48.8,55.2,48.1,41.3,100,78,39,29.69,29.55,7,0,7,0.00
2013-11-3,52.2,43.3,33.8,49.4,34.0,19.1,92,71,47,30.37,29.68,8,0,8,0.00
2013-11-4,47.0,34.3,28.7,26.3,22.7,16.3,89,64,34,30.67,30.38,8,0,8,0.00
2013-11-5,53.9,37.6,27.4,35.7,29.7,20.9,93,75,44,30.68,30.46,5,0,6,0.00
2013-11-6,63.7,50.1,39.1,51.3,42.6,35.1,93,78,50,30.48,30.00,15,2,15,0.00
2013-11-7,66.4,54.0,40.7,59.5,51.5,36.9,100,92,73,30.01,29.64,17,1,20,0.00
2013-11-8,50.5,40.3,33.5,37.0,30.4,23.4,91,69,48,30.06,29.77,14,2,20,0.00
2013-11-9,45.2,38.5,30.9,33.6,28.0,22.9,88,68,44,30.18,29.99,12,1,12,0.00
2013-11-10,56.9,45.9,40.4,45.8,38.4,32.4,100,77,53,29.99,29.69,15,1,15,0.00
2013-11-11,53.4,45.0,39.6,34.9,30.5,26.5,68,58,37,30.07,29.81,15,2,15,0.00
2013-11-12,47.8,37.4,29.1,42.4,29.2,18.7,96,73,57,30.15,29.85,12,1,13,0.00
2013-11-13,40.4,30.0,25.9,21.4,17.1,12.7,78,62,39,30.25,30.12,15,1,15,0.00
2013-11-14,52.3,38.3,28.7,29.1,23.6,19.1,69,57,36,30.12,29.99,12,2,12,0.00
2013-11-15,61.4,44.7,31.8,35.3,26.2,20.4,77,52,23,30.16,30.06,10,1,13,0.00
2013-11-16,61.8,45.2,36.1,35.5,31.6,24.7,91,63,25,30.28,30.14,7,0,8,0.00
2013-11-17,59.3,48.2,34.4,56.9,44.8,32.0,100,89,67,30.28,29.80,5,0,10,0.00
2013-11-18,65.9,57.8,46.9,62.8,49.8,34.8,100,78,47,29.79,29.49,15,3,23,0.00
2013-11-19,47.3,40.4,32.2,35.6,24.8,18.8,66,54,40,30.23,29.61,22,3,22,0.00
2013-11-20,43.5,32.6,25.8,21.4,17.9,13.6,82,57,32,30.58,30.23,14,1,14,0.00
2013-11-21,49.2,34.5,23.6,31.6,22.4,15.6,89,68,37,30.59,30.33,10,0,10,0.00
2013-11-22,48.7,44.9,39.2,48.1,43.2,32.3,100,94,75,30.33,29.78,5,0,5,0.00
2013-11-23,47.9,41.1,30.8,48.1,29.3,17.6,100,65,38,29.87,29.74,15,3,17,0.00
2013-11-24,30.9,25.3,21.5,21.5,3.9,-5.9,76,47,29,30.15,29.75,24,5,25,0.00
2013-11-25,35.7,26.1,18.5,20.2,5.2,-4.8,61,45,23,30.33,30.15,15,2,17,0.00
2013-11-26,41.8,37.7,31.9,41.7,26.3,19.0,100,65,49,30.28,29.98,14,1,14,0.00
2013-11-27,62.4,52.1,38.8,62.7,51.6,35.4,100,98,87,29.99,29.17,26,3,26,0.00
2013-11-28,38.9,32.4,27.4,36.0,20.4,11.3,91,62,39,30.39,29.41,20,3,25,0.00
2013-11-29,35.4,28.9,22.1,20.4,14.5,5.0,78,58,38,30.70,30.38,8,1,8,0.00
2013-11-30,34.5,26.1,17.6,26.7,15.8,7.6,81,71,55,30.75,30.39,7,0,7,0.00